Regional Weather Roundup
Issued by NWS

Home | Current Version | Previous Version | Graphics & Text | Print | Product List | Glossary Off
Versions: 1 2 3 4 5 6 7 8 9 10 11 12 13 14 15 16 17 18 19 20 21 22 23 24 25 26 27 28 29 30 31 32 33 34 35 36 37 38 39 40 41 42 43 44 45 46 47 48 49 50

000
ASUS43 KDMX 100706
RWRIA

WEATHER ROUNDUP FOR IOWA
NATIONAL WEATHER SERVICE DES MOINES IA
100 AM CST SAT DEC 10 2016

NOTE: "FAIR" INDICATES FEW OR NO CLOUDS BELOW 12,000 FEET WITH NO
SIGNIFICANT WEATHER AND/OR OBSTRUCTIONS TO VISIBILITY.

* - THESE STATIONS ARE NOT NWS STATIONS...THUS NOT UNDER NWS
QUALITY CONTROL.  THEY ALSO DO NOT REPORT WEATHER SUCH
AS PRECIPITATION OR FOG.

IAZ001>003-012>014-020>022-031>034-043>046-100800-
   NORTHWEST IOWA

CITY           SKY/WX    TMP DP  RH WIND       PRES   REMARKS
CARROLL *      CLOUDY    19  14  79 CALM      30.48F
CHEROKEE *     FLURRIES  17  13  85 CALM      30.48S
DENISON *      CLOUDY    19  14  79 CALM      30.45F
LE MARS *      CLOUDY    16  12  86 CALM      30.49F
ORANGE CITY *  LGT SNOW  16  14  93 CALM      30.46F
SHELDON *      FLURRIES  14  12  92 N6        30.46S WCI   5
SIOUX CITY     FLURRIES  20  11  68 CALM      30.49F
SPENCER        FLURRIES  15  12  88 W9        30.47F WCI   3
STORM LAKE *   CLOUDY    16  10  79 CALM      30.45F
$$

IAZ055>058-069>071-079>083-090>094-100800-
   SOUTHWEST IOWA

CITY           SKY/WX    TMP DP  RH WIND       PRES   REMARKS
ATLANTIC *     CLOUDY    21  14  73 SE5       30.48F WCI  15
AUDUBON *      CLOUDY    21  14  73 S3        30.47F
CLARINDA *     CLOUDY    23  14  68 CALM      30.50F
COUNCIL BLFS * CLOUDY    21  14  73 SE6       30.47S WCI  14
CRESTON *      CLOUDY    21  14  73 SE5       30.49F WCI  15
HARLAN  *      CLOUDY    21  14  73 S5        30.51S WCI  15
LAMONI         CLOUDY    22  12  65 CALM      30.50R
RED OAK *      CLOUDY    23  14  68 CALM      30.49F
SHENANDOAH *   CLOUDY    25  16  68 CALM      30.49F
$$

IAZ047>049-059>061-072>074-084-100800-
   CENTRAL IOWA

CITY           SKY/WX    TMP DP  RH WIND       PRES   REMARKS
AMES           CLOUDY    20  14  77 W3        30.51S
ANKENY *       CLOUDY    21  12  68 CALM      30.53S
BOONE *        CLOUDY    19   9  63 CALM      30.48F
CHARITON *     CLOUDY    21  16  79 CALM      30.51R
DES MOINES     CLOUDY    22  13  68 W5        30.52S WCI  16
GRINNELL*      CLOUDY    20  14  76 CALM      30.51F
KNOXVILLE *    CLOUDY    21  12  68 CALM      30.51S
MARSHALLTOWN   CLOUDY    19  14  81 W5        30.50S WCI  12
NEWTON *       CLOUDY    19  12  73 CALM      30.51S
PELLA *        CLOUDY    22  13  68 W5        30.54R WCI  16
PERRY *        CLOUDY    21  16  81 CALM      30.51S
$$

IAZ004>006-015-016-023>025-035-036-100800-
   NORTH CENTRAL IOWA

CITY           SKY/WX    TMP DP  RH WIND       PRES   REMARKS
ALGONA *       CLOUDY    16  14  93 CALM      30.47F
CLARION *      CLOUDY    16  14  93 NW5       30.49S WCI   9
ESTHERVILLE    CLOUDY     9   7  92 N8        30.47F WCI  -3
FORT DODGE *   CLOUDY    18   9  68 CALM      30.49F
MASON CITY     CLOUDY    11   8  88 NW6       30.49S WCI   1
FOREST CITY *  FLURRIES  12   9  85 N5        30.48S WCI   4
WEBSTER CITY * CLOUDY    16  14  93 W5        30.47F WCI   9
IOWA FALLS *   CLOUDY    19  14  80 W6        30.50S WCI  11
$$

IAZ007>011-017>019-026>030-037>042-050>054-066-100800-
   NORTHEAST IOWA

CITY           SKY/WX    TMP DP  RH WIND       PRES   REMARKS
CEDAR RAPIDS   CLOUDY    19  16  88 SW3       30.50F
CHARLES CITY * CLOUDY    14  12  92 W5        30.49R WCI   6
CLINTON *      CLOUDY    18  14  84 W6        30.53F WCI  10
DECORAH *      CLOUDY    14  12  92 CALM      30.46S
DUBUQUE        CLOUDY    16  12  84 W7        30.47F WCI   6
MONTICELLO *   FLURRIES  19  14  79 W3        30.50F
OELWEIN *      CLOUDY    18  16  93 W3        30.48F
WATERLOO       CLOUDY    18  12  77 W5        30.50S WCI  11
$$

IAZ064-065-067-068-078-100800-
   EAST CENTRAL IOWA

CITY           SKY/WX    TMP DP  RH WIND       PRES   REMARKS
DAVENPORT      CLOUDY    19  13  77 SW5       30.53F WCI  12
IOWA CITY      CLOUDY    20  15  81 CALM      30.55S
MUSCATINE *    CLOUDY    21  16  79 SW3       30.56R
QUAD CITIES    CLOUDY    21  14  74 SW3       30.54F
$$

IAZ062-063-075>077-085>089-095>099-100800-
   SOUTHEAST IOWA

CITY           SKY/WX    TMP DP  RH WIND       PRES   REMARKS
BURLINGTON     CLOUDY    21  15  78 W3        30.54S
FAIRFIELD *    CLOUDY    21  14  73 CALM      30.53S
FORT MADISON * CLOUDY    21  16  79 CALM      30.54S
KEOKUK *       CLOUDY    23  18  80 CALM      30.54S
OSKALOOSA *    CLOUDY    21  15  79 CALM      30.53S
CENTERVILLE *  CLOUDY    23  14  68 CALM      30.53R
OTTUMWA        CLOUDY    22  13  68 W3        30.52S
WASHINGTON *   CLOUDY    21  14  73 W3        30.54S
$$

ABBREVIATIONS USED IN REMARKS
   TC - TEMPERATURES IN CELSIUS
  WCI - WIND CHILL INDEX
   HX - HEAT INDEX
  VSB - VISIBILITY
$$




USA.gov is the U.S. government's official web portal to all federal, state and local government web resources and services.